Voltar ao catálogo

STARLINK-35061

AtivoComunicaçõesVLEO
NORAD 66191·PAYLOAD·🇺🇸 United States

Lançado Oct 26, 2025 de Cape Canaveral Space Force Station

Loading…

Próximas Passagens (próximas 24 horas)

TLE

AtualizadoSource: CelesTrak SupGP

Época: Sep 15, 2026, 02:56 UTC

1 66191C 25243Q   26258.12270833 -.00023417  00000+0 -69190-3 0  2582
2 66191  53.1570  82.8961 0001151  87.3919 196.3850 15.34400895    17

Acompanhe STARLINK-35061 em tempo real com AllMySat

Download on the App Store